Tillbaka till svenska Fidonet
English   Information   Debug  
FILM   0/18
FNEWS_PUBLISH   5034
FN_SYSOP   42247
FN_SYSOP_OLD1   71952
FTP_FIDO   0/2
FTSC_PUBLIC   0/13979
FUNNY   0/4886
GENEALOGY.EUR   0/71
GET_INFO   105
GOLDED   274/408
HAM   3389/16786
HOLYSMOKE   0/6791
HOT_SITES   0/1
HTMLEDIT   0/71
HUB203   466
HUB_100   264
HUB_400   39
HUMOR   0/29
IC   729/2851
INTERNET   0/424
INTERUSER   0/3
IP_CONNECT   719
JAMNNTPD   0/233
JAMTLAND   0/47
KATTY_KORNER   0/41
LAN   0/16
LINUX-USER   0/19
LINUXHELP   0/1155
LINUX   0/22427
LINUX_BBS   0/957
mail   18.68
mail_fore_ok   249
MENSA   0/341
MODERATOR   0/102
MONTE   0/992
MOSCOW_OKLAHOMA   0/1245
MUFFIN   0/783
MUSIC   0/321
N203_STAT   938
N203_SYSCHAT   313
NET203   321
NET204   69
NET_DEV   0/10
NORD.ADMIN   0/101
NORD.CHAT   0/2572
NORD.FIDONET   189
NORD.HARDWARE   0/28
NORD.KULTUR   0/114
NORD.PROG   0/32
NORD.SOFTWARE   0/88
NORD.TEKNIK   0/58
NORD   0/453
OCCULT_CHAT   0/93
OS2BBS   0/787
OS2DOSBBS   0/580
OS2HW   0/42
OS2INET   0/37
OS2LAN   0/134
OS2PROG   0/36
OS2REXX   0/113
OS2USER-L   207
OS2   0/4835
OSDEBATE   0/18996
PASCAL   0/490
PERL   0/457
PHP   0/45
POINTS   0/405
POLITICS   13418/29554
POL_INC   1332/14731
PSION   103
R20_ADMIN   1133
R20_AMATORRADIO   0/2
R20_BEST_OF_FIDONET   16
R20_CHAT   0/897
R20_DEPP   0/3
R20_DEV   400
R20_ECHO2   1933
R20_ECHOPRES   0/35
R20_ESTAT   0/719
R20_FIDONETPROG...
...RAM.MYPOINT
  0/2
R20_FIDONETPROGRAM   0/22
R20_FIDONET   0/248
R20_FILEFIND   0/24
R20_FILEFOUND   0/22
R20_HIFI   0/3
R20_INFO2   3827
R20_INTERNET   0/12940
R20_INTRESSE   0/60
R20_INTR_KOM   0/99
R20_KANDIDAT.CHAT   42
R20_KANDIDAT   28
R20_KOM_DEV   112
R20_KONTROLL   0/13360
R20_KORSET   0/18
R20_LOKALTRAFIK   0/24
R20_MODERATOR   0/1852
R20_NC   76
R20_NET200   245
R20_NETWORK.OTH...
...ERNETS
  0/13
R20_OPERATIVSYS...
...TEM.LINUX
  0/44
R20_PROGRAMVAROR   0/1
R20_REC2NEC   534
R20_SFOSM   0/341
R20_SF   0/108
R20_SPRAK.ENGLISH   0/1
R20_SQUISH   107
R20_TEST   2
R20_WORST_OF_FIDONET   20
RAR   0/9
RA_MULTI   106
RA_UTIL   0/162
REGCON.EUR   0/2072
REGCON   0/13
SCIENCE   0/1206
SF   0/239
SHAREWARE_SUPPORT   0/5146
SHAREWRE   0/14
SIMPSONS   0/169
STATS_OLD1   1544/2539.065
STATS_OLD2   0/2530
STATS_OLD3   0/2395.095
STATS_OLD4   0/1692.25
SURVIVOR   0/495
SYSOPS_CORNER   0/3
SYSOP   0/84
TAGLINES   0/112
TEAMOS2   0/4530
TECH   0/2617
TEST.444   0/105
TRAPDOOR   0/19
TREK   0/755
TUB   0/290
UFO   0/40
UNIX   0/1316
USA_EURLINK   0/102
USR_MODEMS   0/1
VATICAN   0/2740
VIETNAM_VETS   0/14
VIRUS   0/378
VIRUS_INFO   0/201
VISUAL_BASIC   0/473
WHITEHOUSE   0/5187
WIN2000   0/101
WIN32   0/30
WIN95   0/4291
WIN95_OLD1   0/70272
WINDOWS   0/1517
WWB_SYSOP   0/419
WWB_TECH   0/810
ZCC-PUBLIC   0/1
ZEC   4

 
4DOS   0/134
ABORTION   0/7
ALASKA_CHAT   0/506
ALLFIX_FILE   0/1313
ALLFIX_FILE_OLD1   0/7997
ALT_DOS   0/152
AMATEUR_RADIO   0/1039
AMIGASALE   0/14
AMIGA   0/331
AMIGA_INT   0/1
AMIGA_PROG   0/20
AMIGA_SYSOP   0/26
ANIME   0/15
ARGUS   0/924
ASCII_ART   0/340
ASIAN_LINK   0/651
ASTRONOMY   0/417
AUDIO   0/92
AUTOMOBILE_RACING   0/105
BABYLON5   0/17862
BAG   135
BATPOWER   0/361
BBBS.ENGLISH   0/382
BBSLAW   0/109
BBS_ADS   0/5290
BBS_INTERNET   0/507
BIBLE   0/3563
BINKD   0/1119
BINKLEY   0/215
BLUEWAVE   0/2173
CABLE_MODEMS   0/25
CBM   0/46
CDRECORD   0/66
CDROM   0/20
CLASSIC_COMPUTER   0/378
COMICS   0/15
CONSPRCY   0/899
COOKING   42383
COOKING_OLD1   0/24719
COOKING_OLD2   0/40862
COOKING_OLD3   0/37489
COOKING_OLD4   29727/35496
COOKING_OLD5   9370
C_ECHO   0/189
C_PLUSPLUS   0/31
DIRTY_DOZEN   0/201
DOORGAMES   0/2388
DOS_INTERNET   0/196
duplikat   6102
ECHOLIST   11303/18295
EC_SUPPORT   285/318
ELECTRONICS   0/359
ELEKTRONIK.GER   1534
ENET.LINGUISTIC   0/13
ENET.POLITICS   0/4
ENET.SOFT   0/11701
ENET.SYSOP   34409
ENET.TALKS   0/32
ENGLISH_TUTOR   0/2000
EVOLUTION   0/1335
FDECHO   0/217
FDN_ANNOUNCE   0/7068
FIDONEWS   25225
FIDONEWS_OLD1   0/49742
FIDONEWS_OLD2   0/35949
FIDONEWS_OLD3   0/30874
FIDONEWS_OLD4   0/37224
FIDO_SYSOP   12977
FIDO_UTIL   0/180
FILEFIND   0/209
FILEGATE   0/212
Möte HAM, 16786 texter
 lista första sista föregående nästa
Text 2576, 745 rader
Skriven 2008-10-23 23:00:20 av Amsat List (1:323/120.0)
Ärende: [keps]  orb08297.amsa
=============================
[keps]  orb08297.amsa

Return-Path: <keps-bounces@amsat.org>
X-Rcpt: craig.healy@chowda.com
X-UIDL: 1224817175.50213

SB KEPS @ AMSAT  $ORB08297.O
Orbital Elements  08297.OSCAR

HR AMSAT ORBITAL ELEMENTS FOR OSCAR SATELLITES
FROM WA5QGD FORT WORTH,TX October 23, 2008
Send Subscribe/unsubscribe to KEPS at 
http://www.amsat.org/mailman/listinfo/keps
BID: ORB08297.O
TO ALL RADIO AMATEURS BT

Satellite: AO-07
Catalog number: 07530
Epoch time:      08296.66471049
Element set:    0309
Inclination:      101.4551 deg
RA of node:       323.8453 deg
Eccentricity:    0.0011954
Arg of perigee:   014.0397 deg
Mean anomaly:     346.1004 deg
Mean motion:   12.53574527 rev/day
Decay rate:       -2.7e-07 rev/day^2
Epoch rev:           55295
Checksum:              291

Satellite: AO-10
Catalog number: 14129
Epoch time:      08296.87896683
Element set:     578
Inclination:      026.0297 deg
RA of node:       189.5418 deg
Eccentricity:    0.5960427
Arg of perigee:   167.3579 deg
Mean anomaly:     219.2459 deg
Mean motion:   02.05869307 rev/day
Decay rate:      -1.65e-06 rev/day^2
Epoch rev:           19073
Checksum:              366

Satellite: UO-11
Catalog number: 14781
Epoch time:      08296.58930616
Element set:    0794
Inclination:      098.1423 deg
RA of node:       332.4426 deg
Eccentricity:    0.0009599
Arg of perigee:   029.2446 deg
Mean anomaly:     330.9292 deg
Mean motion:   14.79669409 rev/day
Decay rate:      -2.56e-06 rev/day^2
Epoch rev:           32269
Checksum:              345

Satellite: RS-15
Catalog number: 23439
Epoch time:      08296.90719213
Element set:    0194
Inclination:      064.8167 deg
RA of node:       288.5196 deg
Eccentricity:    0.0145767
Arg of perigee:   098.0762 deg
Mean anomaly:     263.6728 deg
Mean motion:   11.27552487 rev/day
Decay rate:       -3.9e-07 rev/day^2
Epoch rev:           56936
Checksum:              360

Satellite: FO-29
Catalog number: 24278
Epoch time:      08297.79843357
Element set:     888
Inclination:      098.5771 deg
RA of node:       197.1990 deg
Eccentricity:    0.0349770
Arg of perigee:   242.5691 deg
Mean anomaly:     113.9471 deg
Mean motion:   13.52939629 rev/day
Decay rate:       -5.5e-07 rev/day^2
Epoch rev:           60178
Checksum:              381

Satellite: SO-33
Catalog number: 25509
Epoch time:      08296.47557959
Element set:    0309
Inclination:      031.4325 deg
RA of node:       316.6168 deg
Eccentricity:    0.0354311
Arg of perigee:   060.1397 deg
Mean anomaly:     303.3951 deg
Mean motion:   14.28230448 rev/day
Decay rate:       1.90e-06 rev/day^2
Epoch rev:           52182
Checksum:              305

Satellite: AO-40
Catalog number: 26609
Epoch time:      08296.95933999
Element set:     141
Inclination:      007.9800 deg
RA of node:       053.4363 deg
Eccentricity:    0.7938245
Arg of perigee:   136.6768 deg
Mean anomaly:     324.5867 deg
Mean motion:   01.25585453 rev/day
Decay rate:      -4.07e-06 rev/day^2
Epoch rev:            3664
Checksum:              351

Satellite: VO-52
Catalog number: 28650
Epoch time:      08296.31559253
Element set:    0063
Inclination:      097.7750 deg
RA of node:       359.3417 deg
Eccentricity:    0.0028351
Arg of perigee:   086.7565 deg
Mean anomaly:     273.6861 deg
Mean motion:   14.81510966 rev/day
Decay rate:       -2.9e-07 rev/day^2
Epoch rev:           18742
Checksum:              337

Satellite: PO-63
Catalog number: 29712
Epoch time:      08297.72727790
Element set:     906
Inclination:      097.8611 deg
RA of node:       353.4123 deg
Eccentricity:    0.0013809
Arg of perigee:   328.5226 deg
Mean anomaly:     031.5159 deg
Mean motion:   14.80308504 rev/day
Decay rate:       6.54e-06 rev/day^2
Epoch rev:            9648
Checksum:              323

/EX
SB KEPS @ AMSAT  $ORB08297.D
Orbital Elements  08297.MICROS

HR AMSAT ORBITAL ELEMENTS FOR THE MICROSATS
FROM WA5QGD FORT WORTH,TX October 23, 2008
Send Subscribe/unsubscribe to KEPS at 
http://www.amsat.org/mailman/listinfo/keps
BID: ORB08297.D
TO ALL RADIO AMATEURS BT

Satellite: AO-16
Catalog number: 20439
Epoch time:      08296.46657763
Element set:    0447
Inclination:      098.2470 deg
RA of node:       270.1259 deg
Eccentricity:    0.0011258
Arg of perigee:   153.5509 deg
Mean anomaly:     206.6255 deg
Mean motion:   14.31805840 rev/day
Decay rate:        1.0e-07 rev/day^2
Epoch rev:           97913
Checksum:              311

Satellite: LO-19
Catalog number: 20442
Epoch time:      08297.61074273
Element set:     370
Inclination:      098.2153 deg
RA of node:       279.3447 deg
Eccentricity:    0.0012127
Arg of perigee:   147.6935 deg
Mean anomaly:     212.4996 deg
Mean motion:   14.32043364 rev/day
Decay rate:       -1.2e-07 rev/day^2
Epoch rev:           97945
Checksum:              312

Satellite: AO-27
Catalog number: 22825
Epoch time:      08296.54372049
Element set:      89
Inclination:      098.4024 deg
RA of node:       251.8922 deg
Eccentricity:    0.0007583
Arg of perigee:   242.5483 deg
Mean anomaly:     117.4924 deg
Mean motion:   14.29249986 rev/day
Decay rate:       1.04e-06 rev/day^2
Epoch rev:           78596
Checksum:              343

Satellite: IO-26
Catalog number: 22826
Epoch time:      08297.41551610
Element set:     803
Inclination:      098.3960 deg
RA of node:       253.5868 deg
Eccentricity:    0.0008085
Arg of perigee:   237.8634 deg
Mean anomaly:     122.1765 deg
Mean motion:   14.29499446 rev/day
Decay rate:        2.0e-08 rev/day^2
Epoch rev:           78618
Checksum:              334

